Atlantic, IA

11:25 PM CDT on July 22, 2017 (GMT -0500)
Atlantic Municipal

Weather History for KAIO - December, 2013

Change the Weather History Date:

Sunday, December 22, 2013

  Actual Average Record
Temperature  
Mean Temperature 13 °F -  
Max Temperature 21 °F 30 °F 51 °F (2005)
Min Temperature 3 °F 12 °F -16 °F (2000)
Degree Days  
Heating Degree Days 52    
Moisture  
Dew Point 9 °F    
Average Humidity 78    
Maximum Humidity 93    
Minimum Humidity 67    
Precipitation  
Precipitation 0.02 in - - ()
Sea Level Pressure  
Sea Level Pressure 30.08 in    
Wind  
Wind Speed 13 mph (NNW)    
Max Wind Speed 20 mph    
Max Gust Speed 25 mph    
Visibility 8 miles    
Events Rain , Snow    
Averages and records for this station are not official NWS values.
T = Trace of Precipitation, MM = Missing Value Source: NWS Daily Summary

Daily Weather History Graph

Daily Weather History Graph

Search for Another Location

Airport or City:

Trip Planner

Search our weather history database for the weather conditions in past years. The results will help you decide how hot, cold, wet, or windy it might be!

Date:

Astronomy

Dec. 22, 2013 Rise Set
Actual Time 7:43 AM CST 4:54 PM CST
Civil Twilight 7:12 AM CST 5:25 PM CST
Nautical Twilight 6:37 AM CST 6:00 PM CST
Astronomical Twilight 6:03 AM CST 6:34 PM CST
Moon 10:11 PM CST (12/22) 10:37 AM CST (12/22)
Length of Visible Light 10h 13m
Length of Day
9h 10m
Waning Gibbous, 76% of the Moon is Illuminated
Dec 22
Waning Gibbous
Dec 25
Last Quarter
Jan 1
New
Jan 7
First Quarter
Jan 15
Full

Hourly Weather History & Observations

Time (CST) Temp. Windchill Dew Point Humidity Pressure Visibility Wind Dir Wind Speed Gust Speed Precip Events Conditions
12:15 AM 21.2 °F 8.3 °F 19.4 °F 93% 29.81 in 1.8 mi North 13.8 mph 19.6 mph N/A Snow Light Snow
12:35 AM 21.2 °F 7.8 °F 19.4 °F 93% 29.82 in 0.8 mi North 15.0 mph - N/A Snow Light Snow
12:55 AM 21.2 °F 7.8 °F 19.4 °F 93% 29.82 in 0.8 mi North 15.0 mph - N/A Snow Light Snow
1:15 AM 21.2 °F 8.9 °F 19.4 °F 93% 29.83 in 0.8 mi North 12.7 mph 18.4 mph N/A Snow Light Snow
1:35 AM 21.2 °F 7.8 °F 17.6 °F 86% 29.83 in 0.8 mi North 15.0 mph - N/A Snow Light Snow
1:55 AM 21.2 °F 7.8 °F 17.6 °F 86% 29.84 in 1.2 mi North 15.0 mph - 0.01 in Snow Light Snow
2:15 AM 21.2 °F 8.9 °F 17.6 °F 86% 29.84 in 1.0 mi North 12.7 mph 19.6 mph N/A Snow Light Snow
2:35 AM 21.2 °F 7.3 °F 17.6 °F 86% 29.85 in 1.0 mi North 16.1 mph - N/A Snow Light Snow
2:55 AM 21.2 °F 6.8 °F 17.6 °F 86% 29.86 in 1.2 mi North 17.3 mph - N/A Snow Light Snow
3:15 AM 21.2 °F 6.0 °F 17.6 °F 86% 29.86 in 1.0 mi North 19.6 mph - N/A Snow Light Snow
3:35 AM 19.4 °F 6.0 °F 17.6 °F 93% 29.87 in 0.8 mi North 13.8 mph 20.7 mph N/A Snow Light Snow
3:55 AM 19.4 °F 5.0 °F 15.8 °F 86% 29.87 in 1.0 mi North 16.1 mph - 0.01 in Snow Light Snow
4:15 AM 19.4 °F 5.5 °F 15.8 °F 86% 29.88 in 1.0 mi North 15.0 mph 21.9 mph N/A Snow Light Snow
4:35 AM 19.4 °F 5.5 °F 15.8 °F 86% 29.89 in 1.5 mi North 15.0 mph - N/A Snow Light Snow
4:55 AM 19.4 °F 5.5 °F 15.8 °F 86% 29.89 in 1.5 mi North 15.0 mph - N/A Snow Light Snow
5:15 AM 19.4 °F 6.0 °F 15.8 °F 86% 29.90 in 2.5 mi North 13.8 mph 20.7 mph N/A Snow Light Snow
5:35 AM 17.6 °F 2.2 °F 14.0 °F 86% 29.91 in 3.0 mi NNW 17.3 mph - N/A Snow Light Snow
5:55 AM 17.6 °F 1.3 °F 14.0 °F 86% 29.92 in 3.0 mi NNW 19.6 mph 25.3 mph N/A Snow Light Snow
6:15 AM 17.6 °F 1.3 °F 14.0 °F 86% 29.93 in 5.0 mi North 19.6 mph - N/A Snow Light Snow
6:35 AM 17.6 °F 1.7 °F 12.2 °F 79% 29.93 in 5.0 mi North 18.4 mph 25.3 mph N/A Snow Light Snow
6:55 AM 17.6 °F 3.2 °F 12.2 °F 79% 29.95 in 8.0 mi North 15.0 mph - N/A Rain Light Freezing Rain
7:15 AM 17.6 °F 3.7 °F 14.0 °F 86% 29.97 in 10.0 mi NNW 13.8 mph 20.7 mph N/A   Light Freezing Rain
7:35 AM 17.6 °F 2.7 °F 14.0 °F 86% 29.98 in 9.0 mi NNW 16.1 mph 21.9 mph N/A   Light Freezing Rain
7:55 AM 17.6 °F 3.7 °F 14.0 °F 86% 29.99 in 9.0 mi NNW 13.8 mph 19.6 mph N/A   Overcast
8:15 AM 17.6 °F 4.3 °F 14.0 °F 86% 30.00 in 9.0 mi NNW 12.7 mph 18.4 mph N/A   Overcast
8:35 AM 17.6 °F 4.3 °F 14.0 °F 86% 30.02 in 10.0 mi NNW 12.7 mph - N/A   Overcast
8:55 AM 17.6 °F 5.0 °F 12.2 °F 79% 30.02 in 10.0 mi North 11.5 mph 18.4 mph N/A   Overcast
9:15 AM 17.6 °F 4.3 °F 12.2 °F 79% 30.03 in 10.0 mi NNW 12.7 mph - N/A   Overcast
9:35 AM 17.6 °F 3.2 °F 12.2 °F 79% 30.04 in 10.0 mi NNW 15.0 mph - N/A Snow Light Snow
9:55 AM 17.6 °F 5.7 °F 12.2 °F 79% 30.05 in 10.0 mi NNW 10.4 mph 17.3 mph N/A Rain Light Freezing Rain
10:15 AM 17.6 °F 2.2 °F 12.2 °F 79% 30.06 in 10.0 mi NW 17.3 mph - N/A Rain Light Freezing Rain
10:35 AM 17.6 °F 3.2 °F 10.4 °F 73% 30.08 in 10.0 mi NW 15.0 mph - N/A   Overcast
10:55 AM 15.8 °F 0.9 °F 8.6 °F 73% 30.08 in 10.0 mi NNW 15.0 mph 21.9 mph N/A   Mostly Cloudy
11:15 AM 17.6 °F 3.2 °F 10.4 °F 73% 30.08 in 10.0 mi NW 15.0 mph 23.0 mph N/A   Scattered Clouds
11:35 AM 15.8 °F 1.4 °F 10.4 °F 79% 30.09 in 10.0 mi NW 13.8 mph 23.0 mph N/A   Partly Cloudy
11:55 AM 17.6 °F 4.3 °F 10.4 °F 73% 30.10 in 10.0 mi NW 12.7 mph - N/A   Partly Cloudy
12:15 PM 17.6 °F 3.2 °F 10.4 °F 73% 30.10 in 10.0 mi NNW 15.0 mph - N/A   Partly Cloudy
12:35 PM 17.6 °F 2.7 °F 10.4 °F 73% 30.10 in 10.0 mi NNW 16.1 mph - N/A   Scattered Clouds
12:55 PM 17.6 °F 3.2 °F 10.4 °F 73% 30.10 in 10.0 mi NNW 15.0 mph - N/A   Partly Cloudy
1:15 PM 17.6 °F 4.3 °F 10.4 °F 73% 30.10 in 10.0 mi NW 12.7 mph - N/A   Scattered Clouds
1:35 PM 17.6 °F 3.7 °F 10.4 °F 73% 30.11 in 9.0 mi NW 13.8 mph - N/A Snow Light Snow
1:55 PM 17.6 °F 4.3 °F 10.4 °F 73% 30.11 in 9.0 mi NW 12.7 mph - N/A Snow Light Snow
2:15 PM 17.6 °F 4.3 °F 10.4 °F 73% 30.11 in 10.0 mi NW 12.7 mph - N/A Snow Light Snow
2:35 PM 17.6 °F 3.7 °F 10.4 °F 73% 30.12 in 10.0 mi NW 13.8 mph - N/A Rain Light Freezing Rain
2:55 PM 17.6 °F 5.0 °F 10.4 °F 73% 30.13 in 10.0 mi WNW 11.5 mph - N/A Snow Light Snow
3:15 PM 17.6 °F 5.0 °F 10.4 °F 73% 30.13 in 10.0 mi NW 11.5 mph - N/A   Overcast
3:35 PM 17.6 °F 5.7 °F 8.6 °F 68% 30.14 in 10.0 mi NW 10.4 mph - N/A   Overcast
3:55 PM 17.6 °F 7.3 °F 8.6 °F 68% 30.15 in 10.0 mi WNW 8.1 mph - N/A   Overcast
4:15 PM 15.8 °F 4.2 °F 8.6 °F 73% 30.16 in 10.0 mi WNW 9.2 mph - N/A   Mostly Cloudy
4:35 PM 15.8 °F 4.2 °F 6.8 °F 68% 30.17 in 10.0 mi WNW 9.2 mph - N/A   Partly Cloudy
4:55 PM 14.0 °F 2.0 °F 6.8 °F 73% 30.18 in 10.0 mi WNW 9.2 mph - N/A   Partly Cloudy
5:15 PM 12.2 °F 2.9 °F 5.0 °F 73% 30.19 in 10.0 mi WNW 5.8 mph - N/A   Clear
5:35 PM 12.2 °F 1.7 °F 5.0 °F 73% 30.20 in 10.0 mi NW 6.9 mph - N/A   Clear
5:55 PM 10.4 °F -1.5 °F 3.2 °F 73% 30.21 in 10.0 mi NW 8.1 mph - N/A   Clear
6:15 PM 10.4 °F 0.8 °F 3.2 °F 73% 30.22 in 10.0 mi NW 5.8 mph - N/A   Clear
6:35 PM 10.4 °F - 3.2 °F 73% 30.22 in 10.0 mi Calm Calm - N/A   Clear
6:55 PM 8.6 °F - 1.4 °F 73% 30.23 in 10.0 mi Calm Calm - N/A   Clear
7:15 PM 8.6 °F -2.6 °F 1.4 °F 73% 30.24 in 10.0 mi NW 6.9 mph - N/A Snow Light Snow
7:35 PM 8.6 °F -2.6 °F 1.4 °F 73% 30.24 in 10.0 mi WNW 6.9 mph - N/A Snow Light Snow
7:55 PM 6.8 °F -2.0 °F -0.4 °F 72% 30.25 in 10.0 mi NW 4.6 mph - N/A   Clear
8:15 PM 6.8 °F -3.5 °F -0.4 °F 72% 30.27 in 10.0 mi WNW 5.8 mph - N/A   Clear
8:35 PM 6.8 °F -6.9 °F -0.4 °F 72% 30.28 in 10.0 mi NW 9.2 mph - N/A   Clear
8:55 PM 6.8 °F -4.8 °F -0.4 °F 72% 30.29 in 10.0 mi WNW 6.9 mph - N/A   Clear
9:15 PM 5.0 °F -8.1 °F -0.4 °F 78% 30.30 in 10.0 mi WNW 8.1 mph - N/A   Clear
9:35 PM 6.8 °F -5.9 °F -0.4 °F 72% 30.30 in 10.0 mi NW 8.1 mph - N/A   Clear
9:55 PM 5.0 °F -5.6 °F -2.2 °F 72% 30.31 in 10.0 mi NW 5.8 mph - N/A   Clear
10:15 PM 5.0 °F -9.1 °F -2.2 °F 72% 30.31 in 10.0 mi NNW 9.2 mph - N/A   Clear
10:35 PM 6.8 °F -5.9 °F -2.2 °F 67% 30.32 in 10.0 mi NW 8.1 mph - N/A   Partly Cloudy
10:55 PM 5.0 °F -9.1 °F -2.2 °F 72% 30.33 in 10.0 mi NW 9.2 mph - N/A   Partly Cloudy
11:15 PM 5.0 °F -6.9 °F -2.2 °F 72% 30.35 in 10.0 mi NW 6.9 mph - N/A   Scattered Clouds
11:35 PM 5.0 °F -5.6 °F -2.2 °F 72% 30.34 in 10.0 mi NNW 5.8 mph - N/A   Mostly Cloudy
11:55 PM 3.2 °F -9.1 °F -4.0 °F 72% 30.35 in 10.0 mi NW 6.9 mph - N/A   Partly Cloudy